TimeAKDT,TemperatureF,Dew PointF,Humidity,Sea Level PressureIn,VisibilityMPH,Wind Direction,Wind SpeedMPH,Gust SpeedMPH,PrecipitationIn,Events,Conditions,WindDirDegrees,DateUTC
12:53 AM,41.0,37.0,86,30.31,10.0,SSW,6.9,-,N/A,,Clear,210,2012-10-07 08:53:00
1:53 AM,39.0,35.1,86,30.33,10.0,West,4.6,-,N/A,,Clear,260,2012-10-07 09:53:00
2:53 AM,39.0,35.1,86,30.32,10.0,SW,4.6,-,N/A,,Clear,230,2012-10-07 10:53:00
3:53 AM,37.9,35.1,89,30.33,10.0,SW,3.5,-,N/A,,Clear,230,2012-10-07 11:53:00
4:53 AM,39.0,35.1,86,30.32,10.0,WSW,3.5,-,N/A,,Overcast,250,2012-10-07 12:53:00
5:53 AM,39.0,35.1,86,30.33,10.0,West,4.6,-,N/A,,Overcast,260,2012-10-07 13:53:00
6:02 AM,39.2,35.6,87,30.27,10.0,WSW,3.5,-,N/A,,Overcast,250,2012-10-07 14:02:00
6:53 AM,37.9,35.1,89,30.33,10.0,West,3.5,-,N/A,,Overcast,280,2012-10-07 14:53:00
7:53 AM,37.0,35.1,93,30.32,10.0,Calm,Calm,-,N/A,,Overcast,0,2012-10-07 15:53:00
8:53 AM,37.9,35.1,89,30.32,10.0,Calm,Calm,-,N/A,,Overcast,0,2012-10-07 16:53:00
9:53 AM,39.0,36.0,89,30.32,10.0,Calm,Calm,-,0.00,Rain,Light Rain,0,2012-10-07 17:53:00
10:53 AM,42.1,37.9,85,30.32,10.0,Calm,Calm,-,0.00,,Overcast,0,2012-10-07 18:53:00
11:53 AM,43.0,37.9,82,30.32,10.0,NE,3.5,-,0.00,,Overcast,40,2012-10-07 19:53:00
12:53 PM,44.1,39.0,82,30.32,10.0,Calm,Calm,-,0.00,Rain,Light Rain,0,2012-10-07 20:53:00
1:53 PM,45.0,39.9,82,30.30,10.0,Calm,Calm,-,0.01,Rain,Light Rain,0,2012-10-07 21:53:00
2:53 PM,45.0,41.0,86,30.30,10.0,NNE,4.6,-,0.00,Rain,Light Rain,20,2012-10-07 22:53:00
3:53 PM,45.0,42.1,90,30.29,10.0,North,6.9,-,0.01,,Overcast,350,2012-10-07 23:53:00
4:53 PM,44.1,42.1,93,30.27,10.0,North,3.5,-,0.02,Rain,Light Rain,350,2012-10-08 00:53:00
5:53 PM,44.1,42.1,93,30.27,10.0,Calm,Calm,-,0.01,Rain,Light Rain,0,2012-10-08 01:53:00
6:53 PM,43.0,41.0,93,30.26,10.0,NNE,5.8,-,0.03,Rain,Light Rain,20,2012-10-08 02:53:00
7:53 PM,43.0,41.0,93,30.27,10.0,NNW,3.5,-,0.03,Rain,Light Rain,340,2012-10-08 03:53:00
8:53 PM,42.1,41.0,96,30.26,10.0,NW,4.6,-,0.01,,Overcast,320,2012-10-08 04:53:00
9:26 PM,42.8,41.0,93,30.21,10.0,Calm,Calm,-,N/A,,Overcast,0,2012-10-08 05:26:00
9:53 PM,42.1,41.0,96,30.26,10.0,Calm,Calm,-,N/A,,Overcast,0,2012-10-08 05:53:00
10:07 PM,42.8,41.0,93,30.21,10.0,Calm,Calm,-,N/A,,Overcast,0,2012-10-08 06:07:00
10:45 PM,41.0,39.2,93,30.19,10.0,NNW,4.6,-,N/A,,Mostly Cloudy,330,2012-10-08 06:45:00
10:53 PM,41.0,39.9,96,30.26,10.0,WNW,3.5,-,N/A,,Mostly Cloudy,300,2012-10-08 06:53:00
11:06 PM,42.8,41.0,93,30.20,10.0,NW,3.5,-,N/A,,Overcast,310,2012-10-08 07:06:00
11:53 PM,42.1,41.0,96,30.25,10.0,Calm,Calm,-,N/A,,Overcast,0,2012-10-08 07:53:00